Time,TemperatureF,DewpointF,PressureIn,WindDirection,WindDirectionDegrees,WindSpeedMPH,WindSpeedGustMPH,Humidity,HourlyPrecipIn,Conditions,Clouds,dailyrainin,SoftwareType,DateUTC
2013-10-07 00:01:00,62.2,39.0,30.11,NW,312,0.0,2.0,43,0.00,,,0.00,weatherlink.com 1.10,2013-10-07 05:01:00,
2013-10-07 00:16:00,62.0,39.0,30.11,NW,312,0.0,2.0,43,0.00,,,0.00,weatherlink.com 1.10,2013-10-07 05:16:00,
2013-10-07 00:31:00,62.0,40.0,30.11,WNW,301,1.0,3.0,44,0.00,,,0.00,weatherlink.com 1.10,2013-10-07 05:31:00,
2013-10-07 00:46:00,62.0,40.0,30.11,NW,304,2.0,4.0,44,0.00,,,0.00,weatherlink.com 1.10,2013-10-07 05:46:00,
2013-10-07 01:01:00,61.3,40.0,30.11,NW,304,1.0,2.0,46,0.00,,,0.00,weatherlink.com 1.10,2013-10-07 06:01:00,
2013-10-07 01:16:00,61.3,41.0,30.11,NW,304,2.0,2.0,47,0.00,,,0.00,weatherlink.com 1.10,2013-10-07 06:16:00,
2013-10-07 01:31:00,61.1,41.0,30.11,WNW,303,1.0,4.0,47,0.00,,,0.00,weatherlink.com 1.10,2013-10-07 06:31:00,
2013-10-07 01:46:00,60.9,41.0,30.11,WNW,298,3.0,5.0,48,0.00,,,0.00,weatherlink.com 1.10,2013-10-07 06:46:00,
2013-10-07 02:01:00,60.7,41.0,30.11,NW,304,2.0,3.0,49,0.00,,,0.00,weatherlink.com 1.10,2013-10-07 07:01:00,
2013-10-07 02:16:00,60.7,41.0,30.11,NW,308,2.0,3.0,48,0.00,,,0.00,weatherlink.com 1.10,2013-10-07 07:16:00,
2013-10-07 02:31:00,60.2,41.0,30.12,NW,304,2.0,2.0,50,0.00,,,0.00,weatherlink.com 1.10,2013-10-07 07:31:00,
2013-10-07 02:46:00,60.0,43.0,30.11,WNW,299,1.0,3.0,54,0.00,,,0.00,weatherlink.com 1.10,2013-10-07 07:46:00,
2013-10-07 03:01:00,59.6,43.0,30.11,NW,311,1.0,3.0,55,0.00,,,0.00,weatherlink.com 1.10,2013-10-07 08:01:00,
2013-10-07 03:16:00,58.8,44.0,30.11,NW,311,1.0,2.0,59,0.00,,,0.00,weatherlink.com 1.10,2013-10-07 08:16:00,
2013-10-07 03:31:00,57.8,45.0,30.11,NW,311,0.0,0.0,62,0.00,,,0.00,weatherlink.com 1.10,2013-10-07 08:31:00,
2013-10-07 03:46:00,57.3,45.0,30.11,NW,311,0.0,1.0,63,0.00,,,0.00,weatherlink.com 1.10,2013-10-07 08:46:00,
2013-10-07 04:01:00,57.6,44.0,30.11,WNW,294,1.0,2.0,61,0.00,,,0.00,weatherlink.com 1.10,2013-10-07 09:01:00,
2013-10-07 04:16:00,57.6,44.0,30.11,WNW,294,0.0,1.0,62,0.00,,,0.00,weatherlink.com 1.10,2013-10-07 09:16:00,
2013-10-07 04:31:00,57.2,44.0,30.11,SW,226,2.0,2.0,61,0.00,,,0.00,weatherlink.com 1.10,2013-10-07 09:31:00,
2013-10-07 04:46:00,57.5,45.0,30.11,WNW,287,1.0,2.0,63,0.00,,,0.00,weatherlink.com 1.10,2013-10-07 09:46:00,
2013-10-07 05:01:00,57.4,45.0,30.12,WNW,288,0.0,2.0,63,0.00,,,0.00,weatherlink.com 1.10,2013-10-07 10:01:00,
2013-10-07 05:16:00,57.8,45.0,30.12,WNW,288,1.0,2.0,62,0.00,,,0.00,weatherlink.com 1.10,2013-10-07 10:16:00,
2013-10-07 05:31:00,57.7,45.0,30.12,WNW,288,0.0,1.0,64,0.00,,,0.00,weatherlink.com 1.10,2013-10-07 10:31:00,
2013-10-07 05:46:00,57.0,45.0,30.12,WNW,288,0.0,1.0,65,0.00,,,0.00,weatherlink.com 1.10,2013-10-07 10:46:00,
2013-10-07 06:01:00,56.7,45.0,30.12,WNW,288,0.0,1.0,66,0.00,,,0.00,weatherlink.com 1.10,2013-10-07 11:01:00,
2013-10-07 06:16:00,56.4,46.0,30.13,West,277,1.0,1.0,68,0.00,,,0.00,weatherlink.com 1.10,2013-10-07 11:16:00,
2013-10-07 06:31:00,56.6,46.0,30.13,West,277,0.0,1.0,69,0.00,,,0.00,weatherlink.com 1.10,2013-10-07 11:31:00,
2013-10-07 06:46:00,55.7,45.0,30.13,West,277,0.0,0.0,68,0.00,,,0.00,weatherlink.com 1.10,2013-10-07 11:46:00,
2013-10-07 07:01:00,54.4,45.0,30.13,West,277,0.0,0.0,71,0.00,,,0.00,weatherlink.com 1.10,2013-10-07 12:01:00,
2013-10-07 07:17:00,53.8,45.0,30.14,West,277,0.0,0.0,73,0.00,,,0.00,weatherlink.com 1.10,2013-10-07 12:17:00,
2013-10-07 07:32:00,53.8,46.0,30.14,SW,217,1.0,1.0,74,0.00,,,0.00,weatherlink.com 1.10,2013-10-07 12:32:00,
2013-10-07 07:47:00,53.3,45.0,30.14,SW,217,0.0,1.0,74,0.00,,,0.00,weatherlink.com 1.10,2013-10-07 12:47:00,
2013-10-07 08:02:00,55.9,47.0,30.14,SW,218,1.0,1.0,71,0.00,,,0.00,weatherlink.com 1.10,2013-10-07 13:02:00,
2013-10-07 08:17:00,57.4,47.0,30.15,SW,219,1.0,2.0,68,0.00,,,0.00,weatherlink.com 1.10,2013-10-07 13:17:00,
2013-10-07 08:32:00,58.9,47.0,30.15,SSW,210,0.0,2.0,66,0.00,,,0.00,weatherlink.com 1.10,2013-10-07 13:32:00,
2013-10-07 08:47:00,60.4,48.0,30.16,SSW,210,0.0,1.0,65,0.00,,,0.00,weatherlink.com 1.10,2013-10-07 13:47:00,
2013-10-07 09:02:00,62.3,48.0,30.16,SSW,210,0.0,1.0,61,0.00,,,0.00,weatherlink.com 1.10,2013-10-07 14:02:00,
2013-10-07 09:17:00,64.2,48.0,30.16,SSE,148,1.0,2.0,56,0.00,,,0.00,weatherlink.com 1.10,2013-10-07 14:17:00,
2013-10-07 09:32:00,66.3,49.0,30.17,SE,132,0.0,1.0,55,0.00,,,0.00,weatherlink.com 1.10,2013-10-07 14:32:00,
2013-10-07 09:47:00,68.1,49.0,30.17,SE,131,0.0,1.0,51,0.00,,,0.00,weatherlink.com 1.10,2013-10-07 14:47:00,
2013-10-07 10:02:00,68.4,47.0,30.17,NNW,330,1.0,2.0,46,0.00,,,0.00,weatherlink.com 1.10,2013-10-07 15:02:00,
2013-10-07 10:17:00,68.6,46.0,30.18,North,355,0.0,4.0,45,0.00,,,0.00,weatherlink.com 1.10,2013-10-07 15:17:00,
2013-10-07 10:32:00,70.3,48.0,30.18,NW,316,2.0,3.0,46,0.00,,,0.00,weatherlink.com 1.10,2013-10-07 15:32:00,
2013-10-07 10:47:00,70.9,45.0,30.18,NNW,342,0.0,3.0,40,0.00,,,0.00,weatherlink.com 1.10,2013-10-07 15:47:00,
2013-10-07 11:02:00,72.3,45.0,30.18,NE,34,2.0,4.0,38,0.00,,,0.00,weatherlink.com 1.10,2013-10-07 16:02:00,
2013-10-07 11:17:00,73.5,46.0,30.18,ENE,68,1.0,4.0,37,0.00,,,0.00,weatherlink.com 1.10,2013-10-07 16:17:00,
2013-10-07 11:32:00,74.2,45.0,30.17,NNE,13,3.0,4.0,35,0.00,,,0.00,weatherlink.com 1.10,2013-10-07 16:32:00,
2013-10-07 11:47:00,74.6,46.0,30.17,NW,311,0.0,4.0,36,0.00,,,0.00,weatherlink.com 1.10,2013-10-07 16:47:00,
2013-10-07 12:02:00,75.6,44.0,30.17,North,9,4.0,5.0,33,0.00,,,0.00,weatherlink.com 1.10,2013-10-07 17:02:00,
2013-10-07 12:17:00,75.7,45.0,30.16,NNE,32,1.0,5.0,33,0.00,,,0.00,weatherlink.com 1.10,2013-10-07 17:17:00,
2013-10-07 12:32:00,77.3,45.0,30.16,ENE,63,3.0,3.0,32,0.00,,,0.00,weatherlink.com 1.10,2013-10-07 17:32:00,
2013-10-07 12:47:00,77.3,43.0,30.16,ENE,60,3.0,7.0,29,0.00,,,0.00,weatherlink.com 1.10,2013-10-07 17:47:00,
2013-10-07 13:02:00,77.7,42.0,30.15,WNW,292,3.0,6.0,28,0.00,,,0.00,weatherlink.com 1.10,2013-10-07 18:02:00,
2013-10-07 13:17:00,78.2,42.0,30.14,NNE,18,3.0,5.0,28,0.00,,,0.00,weatherlink.com 1.10,2013-10-07 18:17:00,
2013-10-07 13:33:00,78.5,39.0,30.13,West,274,1.0,7.0,24,0.00,,,0.00,weatherlink.com 1.10,2013-10-07 18:33:00,
2013-10-07 13:48:00,79.3,39.0,30.13,WNW,302,7.0,7.0,24,0.00,,,0.00,weatherlink.com 1.10,2013-10-07 18:48:00,
2013-10-07 14:03:00,79.0,40.0,30.12,North,8,6.0,7.0,25,0.00,,,0.00,weatherlink.com 1.10,2013-10-07 19:03:00,
2013-10-07 14:18:00,79.6,42.0,30.12,NW,316,6.0,7.0,26,0.00,,,0.00,weatherlink.com 1.10,2013-10-07 19:18:00,
2013-10-07 14:33:00,79.5,40.0,30.11,WNW,290,4.0,8.0,24,0.00,,,0.00,weatherlink.com 1.10,2013-10-07 19:33:00,
2013-10-07 14:48:00,80.3,41.0,30.10,North,10,5.0,5.0,25,0.00,,,0.00,weatherlink.com 1.10,2013-10-07 19:48:00,
2013-10-07 15:03:00,80.1,39.0,30.10,NNE,23,3.0,8.0,23,0.00,,,0.00,weatherlink.com 1.10,2013-10-07 20:03:00,
2013-10-07 15:18:00,80.7,38.0,30.10,NNW,333,4.0,8.0,22,0.00,,,0.00,weatherlink.com 1.10,2013-10-07 20:18:00,
2013-10-07 15:33:00,80.5,37.0,30.09,West,267,2.0,9.0,21,0.00,,,0.00,weatherlink.com 1.10,2013-10-07 20:33:00,
2013-10-07 15:48:00,81.1,39.0,30.09,East,83,3.0,8.0,22,0.00,,,0.00,weatherlink.com 1.10,2013-10-07 20:48:00,
2013-10-07 16:03:00,80.8,39.0,30.09,NE,53,0.0,5.0,22,0.00,,,0.00,weatherlink.com 1.10,2013-10-07 21:03:00,
2013-10-07 16:18:00,80.8,41.0,30.09,NW,309,3.0,6.0,24,0.00,,,0.00,weatherlink.com 1.10,2013-10-07 21:18:00,
2013-10-07 16:33:00,81.0,38.0,30.08,NE,44,5.0,6.0,21,0.00,,,0.00,weatherlink.com 1.10,2013-10-07 21:33:00,
2013-10-07 16:48:00,81.2,38.0,30.08,East,79,3.0,6.0,21,0.00,,,0.00,weatherlink.com 1.10,2013-10-07 21:48:00,
2013-10-07 17:03:00,81.1,38.0,30.07,NNW,347,2.0,8.0,21,0.00,,,0.00,weatherlink.com 1.10,2013-10-07 22:03:00,
2013-10-07 17:18:00,81.0,38.0,30.08,NNE,25,4.0,5.0,21,0.00,,,0.00,weatherlink.com 1.10,2013-10-07 22:18:00,
2013-10-07 17:33:00,80.9,39.0,30.07,NE,49,2.0,4.0,22,0.00,,,0.00,weatherlink.com 1.10,2013-10-07 22:33:00,
2013-10-07 17:48:00,80.2,39.0,30.07,ENE,58,2.0,6.0,23,0.00,,,0.00,weatherlink.com 1.10,2013-10-07 22:48:00,
2013-10-07 18:03:00,79.5,41.0,30.07,ENE,66,3.0,6.0,25,0.00,,,0.00,weatherlink.com 1.10,2013-10-07 23:03:00,
2013-10-07 18:18:00,79.2,40.0,30.07,ENE,66,2.0,4.0,25,0.00,,,0.00,weatherlink.com 1.10,2013-10-07 23:18:00,
2013-10-07 18:33:00,78.7,40.0,30.07,ENE,59,2.0,4.0,25,0.00,,,0.00,weatherlink.com 1.10,2013-10-07 23:33:00,
2013-10-07 18:48:00,77.8,40.0,30.07,ENE,61,1.0,4.0,26,0.00,,,0.00,weatherlink.com 1.10,2013-10-07 23:48:00,
2013-10-07 19:03:00,76.2,40.0,30.07,NE,51,3.0,3.0,27,0.00,,,0.00,weatherlink.com 1.10,2013-10-08 00:03:00,
2013-10-07 19:18:00,75.0,41.0,30.07,NE,51,0.0,1.0,29,0.00,,,0.00,weatherlink.com 1.10,2013-10-08 00:18:00,
2013-10-07 19:33:00,74.1,40.0,30.07,NE,53,0.0,1.0,29,0.00,,,0.00,weatherlink.com 1.10,2013-10-08 00:33:00,
2013-10-07 19:48:00,73.3,41.0,30.07,NE,53,0.0,1.0,31,0.00,,,0.00,weatherlink.com 1.10,2013-10-08 00:48:00,
2013-10-07 20:03:00,73.3,40.0,30.08,NE,52,1.0,1.0,30,0.00,,,0.00,weatherlink.com 1.10,2013-10-08 01:03:00,
2013-10-07 20:18:00,72.8,40.0,30.08,NE,52,0.0,1.0,31,0.00,,,0.00,weatherlink.com 1.10,2013-10-08 01:18:00,
2013-10-07 20:33:00,72.2,39.0,30.08,NE,52,0.0,1.0,30,0.00,,,0.00,weatherlink.com 1.10,2013-10-08 01:33:00,
2013-10-07 20:48:00,70.7,44.0,30.09,ESE,108,1.0,1.0,39,0.00,,,0.00,weatherlink.com 1.10,2013-10-08 01:48:00,
2013-10-07 21:03:00,69.6,45.0,30.09,ESE,108,0.0,1.0,41,0.00,,,0.00,weatherlink.com 1.10,2013-10-08 02:03:00,
2013-10-07 21:18:00,68.9,45.0,30.10,ESE,108,0.0,1.0,42,0.00,,,0.00,weatherlink.com 1.10,2013-10-08 02:18:00,
2013-10-07 21:33:00,67.8,43.0,30.10,ESE,108,0.0,0.0,41,0.00,,,0.00,weatherlink.com 1.10,2013-10-08 02:33:00,
2013-10-07 21:48:00,66.4,43.0,30.10,ESE,108,0.0,0.0,43,0.00,,,0.00,weatherlink.com 1.10,2013-10-08 02:48:00,
2013-10-07 22:03:00,65.7,43.0,30.10,ESE,107,0.0,0.0,44,0.00,,,0.00,weatherlink.com 1.10,2013-10-08 03:03:00,
2013-10-07 22:18:00,66.2,44.0,30.11,ESE,108,0.0,0.0,45,0.00,,,0.00,weatherlink.com 1.10,2013-10-08 03:18:00,
2013-10-07 22:33:00,66.1,45.0,30.11,ESE,108,0.0,0.0,46,0.00,,,0.00,weatherlink.com 1.10,2013-10-08 03:33:00,
2013-10-07 22:48:00,65.4,44.0,30.10,ESE,108,0.0,0.0,47,0.00,,,0.00,weatherlink.com 1.10,2013-10-08 03:48:00,
2013-10-07 23:03:00,63.5,45.0,30.10,ESE,108,0.0,0.0,51,0.00,,,0.00,weatherlink.com 1.10,2013-10-08 04:03:00,
2013-10-07 23:18:00,63.3,44.0,30.10,ESE,107,0.0,0.0,50,0.00,,,0.00,weatherlink.com 1.10,2013-10-08 04:18:00,
2013-10-07 23:33:00,62.6,44.0,30.10,ESE,107,0.0,0.0,51,0.00,,,0.00,weatherlink.com 1.10,2013-10-08 04:33:00,
2013-10-07 23:48:00,64.0,44.0,30.10,ESE,105,1.0,1.0,48,0.00,,,0.00,weatherlink.com 1.10,2013-10-08 04:48:00,